{"data":{"norad_id":42698,"epoch":"2026-09-19T18:57:02.430144Z","epoch_age_seconds":88497,"freshness":"FRESH","line1":"1 42698U 17025A   26262.78961146  .00000000  00000+0  00000+0 0  9992","line2":"2 42698   0.0225 151.4123 0000530  20.9332 167.1021  1.00271106 34221","mean_motion":1.00271106,"eccentricity":5.3e-5,"inclination_deg":0.0225,"raan_deg":151.4123,"arg_perigee_deg":20.9332,"mean_anomaly_deg":167.1021,"bstar":0,"rev_number":3422,"period_min":1436.106628763,"perigee_km":35784.550569731,"apogee_km":35789.020051496,"semimajor_km":42164.922310613,"source":"CELESTRAK","updated_at":"2026-09-20T09:00:35.253175Z"}}